| time (UTC) | temp F | wind direction | speed knots | gust knots | rain 1hr in | rain 24hr in | rain mn in | humidity % | barometer mb |
| 20260502183013 | 69 | 68 | 1.7 | 7.0 | 0.00 | 0.00 | 0.00 | 23 | 1020.3 |
| 20260502182556 | 68 | 89 | 4.3 | 13.0 | 0.00 | 0.00 | 0.00 | 23 | 1020.2 |
| 20260502182055 | 69 | 62 | 9.6 | 11.3 | 0.00 | 0.00 | 0.00 | 23 | 1020.2 |
| 20260502181514 | 69 | 13 | 5.2 | 11.3 | 0.00 | 0.00 | 0.00 | 24 | 1020.5 |
| 20260502164055 | 65 | 71 | 8.7 | 15.6 | 0.00 | 0.00 | 0.00 | 27 | 1020.6 |
| 20260502163555 | 65 | 102 | 6.1 | 11.3 | 0.00 | 0.00 | 0.00 | 27 | 1020.6 |
| 20260502163014 | 64 | 58 | 8.7 | 13.9 | 0.00 | 0.00 | 0.00 | 28 | 1020.7 |
| 20260502162555 | 65 | 99 | 6.1 | 7.8 | 0.00 | 0.00 | 0.00 | 28 | 1020.4 |
| 20260502162055 | 64 | 96 | 6.1 | 13.9 | 0.00 | 0.00 | 0.00 | 28 | 1020.5 |
| 20260502152056 | 61 | 34 | 6.1 | 10.4 | 0.00 | 0.00 | 0.00 | 28 | 1020.2 |
| 20260502151556 | 61 | 105 | 6.1 | 7.8 | 0.00 | 0.00 | 0.00 | 28 | 1020.2 |
| 20260502151014 | 61 | 38 | 5.2 | 7.0 | 0.00 | 0.00 | 0.00 | 27 | 1020.2 |
| 20260502150556 | 61 | 8 | 2.6 | 7.0 | 0.00 | 0.00 | 0.00 | 28 | 1020.2 |
| 20260502130556 | 43 | 273 | 2.6 | 4.3 | 0.00 | 0.00 | 0.00 | 45 | 1019.3 |
| 20260502123555 | 41 | 264 | 3.5 | 4.3 | 0.00 | 0.00 | 0.00 | 48 | 1019.0 |
| 20260502123055 | 41 | 262 | 3.5 | 4.3 | 0.00 | 0.00 | 0.00 | 48 | 1019.2 |
| 20260502122514 | 41 | 256 | 3.5 | 3.5 | 0.00 | 0.00 | 0.00 | 48 | 1019.0 |
| 20260502122014 | 42 | 263 | 3.5 | 4.3 | 0.00 | 0.00 | 0.00 | 46 | 1018.9 |
| 20260502121556 | 42 | 264 | 3.5 | 4.3 | 0.00 | 0.00 | 0.00 | 46 | 1019.0 |
| 20260502121014 | 41 | 267 | 3.5 | 4.3 | 0.00 | 0.00 | 0.00 | 48 | 1018.8 |
| 20260502120555 | 42 | 263 | 3.5 | 3.5 | 0.00 | 0.00 | 0.00 | 48 | 1018.9 |
| 20260502115556 | 42 | 273 | 2.6 | 2.6 | 0.00 | 0.00 | 0.00 | 47 | 1018.8 |
| 20260502115014 | 42 | 253 | 3.5 | 4.3 | 0.00 | 0.00 | 0.00 | 47 | 1018.8 |
| 20260502114555 | 41 | 264 | 3.5 | 4.3 | 0.00 | 0.00 | 0.00 | 49 | 1018.8 |
| 20260502114055 | 41 | 263 | 4.3 | 4.3 | 0.00 | 0.00 | 0.00 | 49 | 1018.7 |
| 20260502113556 | 41 | 267 | 4.3 | 5.2 | 0.00 | 0.00 | 0.00 | 49 | 1018.9 |
| 20260502113014 | 42 | 261 | 4.3 | 4.3 | 0.00 | 0.00 | 0.00 | 48 | 1018.8 |
| 20260502112555 | 43 | 264 | 4.3 | 5.2 | 0.00 | 0.00 | 0.00 | 47 | 1018.9 |
| 20260502112014 | 42 | 277 | 4.3 | 4.3 | 0.00 | 0.00 | 0.00 | 49 | 1018.9 |
| 20260502111556 | 42 | 289 | 3.5 | 4.3 | 0.00 | 0.00 | 0.00 | 48 | 1018.7 |
| 20260502111056 | 42 | 266 | 1.7 | 4.3 | 0.00 | 0.00 | 0.00 | 48 | 1019.0 |
| 20260502110556 | 42 | 268 | 3.5 | 5.2 | 0.00 | 0.00 | 0.00 | 48 | 1018.8 |
| 20260502110014 | 42 | 279 | 4.3 | 5.2 | 0.00 | 0.00 | 0.00 | 48 | 1018.8 |
| 20260502105555 | 42 | 268 | 4.3 | 4.3 | 0.00 | 0.00 | 0.00 | 48 | 1019.0 |
| 20260502105056 | 42 | 258 | 4.3 | 4.3 | 0.00 | 0.00 | 0.00 | 48 | 1018.9 |
| 20260502104514 | 42 | 268 | 4.3 | 4.3 | 0.00 | 0.00 | 0.00 | 48 | 1018.8 |
| 20260502104014 | 42 | 272 | 3.5 | 4.3 | 0.00 | 0.00 | 0.00 | 47 | 1019.0 |
| 20260502103556 | 43 | 262 | 3.5 | 3.5 | 0.00 | 0.00 | 0.00 | 46 | 1018.8 |
| 20260502101555 | 43 | 265 | 3.5 | 4.3 | 0.00 | 0.00 | 0.00 | 46 | 1018.9 |
| 20260502101013 | 42 | 261 | 2.6 | 3.5 | 0.00 | 0.00 | 0.00 | 47 | 1019.0 |
| 20260502100556 | 43 | 266 | 2.6 | 3.5 | 0.00 | 0.00 | 0.00 | 46 | 1018.8 |
| 20260502071015 | 48 | 267 | 2.6 | 2.6 | 0.00 | 0.00 | 0.00 | 36 | 1019.3 |
| 20260502070517 | 48 | 266 | 1.7 | 2.6 | 0.00 | 0.00 | 0.00 | 35 | 1019.2 |
| 20260502070013 | 47 | 263 | 2.6 | 2.6 | 0.00 | 0.00 | 0.00 | 36 | 1019.2 |
| 20260502065555 | 46 | 267 | 3.5 | 4.3 | 0.00 | 0.00 | 0.00 | 37 | 1019.2 |
| 20260502065015 | 47 | 264 | 2.6 | 4.3 | 0.00 | 0.00 | 0.00 | 37 | 1019.0 |
| 20260502064555 | 47 | 248 | 2.6 | 3.5 | 0.00 | 0.00 | 0.00 | 35 | 1019.2 |
| 20260502064056 | 47 | 277 | 1.7 | 4.3 | 0.00 | 0.00 | 0.00 | 37 | 1019.2 |
| 20260502063556 | 48 | 259 | 2.6 | 2.6 | 0.00 | 0.00 | 0.00 | 34 | 1019.0 |
| 20260502061055 | 48 | 256 | 2.6 | 2.6 | 0.00 | 0.00 | 0.00 | 34 | 1018.9 |
| 20260502060555 | 49 | 262 | 2.6 | 4.3 | 0.00 | 0.00 | 0.00 | 33 | 1018.9 |
| 20260502060014 | 49 | 252 | 2.6 | 2.6 | 0.00 | 0.00 | 0.00 | 34 | 1018.9 |
| 20260502055555 | 50 | 257 | 2.6 | 2.6 | 0.00 | 0.00 | 0.00 | 32 | 1019.0 |
| 20260502055056 | 49 | 294 | 2.6 | 3.5 | 0.00 | 0.00 | 0.00 | 33 | 1018.8 |
| 20260502054514 | 49 | 281 | 1.7 | 3.5 | 0.00 | 0.00 | 0.00 | 34 | 1018.9 |
| 20260502054014 | 50 | 219 | 1.7 | 2.6 | 0.00 | 0.00 | 0.00 | 32 | 1018.7 |
| 20260502053556 | 50 | 263 | 1.7 | 2.6 | 0.00 | 0.00 | 0.00 | 32 | 1018.9 |
| 20260502053015 | 51 | 261 | 0.0 | 2.6 | 0.00 | 0.00 | 0.00 | 31 | 1018.8 |
| 20260502052555 | 51 | 315 | 0.0 | 2.6 | 0.00 | 0.00 | 0.00 | 31 | 1018.8 |
| 20260502052055 | 51 | 243 | 1.7 | 2.6 | 0.00 | 0.00 | 0.00 | 31 | 1018.7 |
| 20260502051555 | 52 | 161 | 0.0 | 3.5 | 0.00 | 0.00 | 0.00 | 30 | 1018.8 |
| 20260502051014 | 52 | 100 | 1.7 | 1.7 | 0.00 | 0.00 | 0.00 | 30 | 1018.8 |
| 20260502050555 | 53 | 241 | 0.0 | 3.5 | 0.00 | 0.00 | 0.00 | 29 | 1018.6 |
| 20260502050055 | 53 | 266 | 3.5 | 5.2 | 0.00 | 0.00 | 0.00 | 29 | 1018.5 |
| 20260502044555 | 55 | 268 | 3.5 | 3.5 | 0.00 | 0.00 | 0.00 | 27 | 1018.3 |
| 20260502044055 | 56 | 259 | 3.5 | 4.3 | 0.00 | 0.00 | 0.00 | 27 | 1018.3 |
| 20260502043556 | 56 | 260 | 3.5 | 5.2 | 0.00 | 0.00 | 0.00 | 27 | 1018.3 |
| 20260502043055 | 56 | 282 | 1.7 | 3.5 | 0.00 | 0.00 | 0.00 | 27 | 1018.4 |
| 20260502042555 | 57 | 279 | 0.0 | 2.6 | 0.00 | 0.00 | 0.00 | 26 | 1018.2 |
| 20260502040514 | 59 | 299 | 4.3 | 5.2 | 0.00 | 0.00 | 0.00 | 24 | 1018.0 |
| 20260502040015 | 59 | 304 | 7.0 | 7.8 | 0.00 | 0.00 | 0.00 | 24 | 1017.9 |
| 20260502035556 | 60 | 338 | 2.6 | 6.1 | 0.00 | 0.00 | 0.00 | 23 | 1018.0 |
| 20260502035014 | 60 | 292 | 3.5 | 7.8 | 0.00 | 0.00 | 0.00 | 23 | 1018.0 |
| 20260502034555 | 60 | 294 | 4.3 | 7.8 | 0.00 | 0.00 | 0.00 | 23 | 1017.9 |
| 20260502034056 | 60 | 284 | 3.5 | 6.1 | 0.00 | 0.00 | 0.00 | 23 | 1017.8 |
| 20260502033555 | 60 | 3 | 3.5 | 7.8 | 0.00 | 0.00 | 0.00 | 23 | 1017.7 |
| 20260502033014 | 61 | 313 | 1.7 | 7.8 | 0.00 | 0.00 | 0.00 | 23 | 1017.7 |
| 20260502032555 | 60 | 335 | 4.3 | 9.6 | 0.00 | 0.00 | 0.00 | 23 | 1017.5 |
| 20260502032055 | 61 | 354 | 4.3 | 10.4 | 0.00 | 0.00 | 0.00 | 23 | 1017.6 |
| 20260502031515 | 61 | 74 | 2.6 | 8.7 | 0.00 | 0.00 | 0.00 | 23 | 1017.5 |
| 20260502031014 | 61 | 6 | 5.2 | 9.6 | 0.00 | 0.00 | 0.00 | 23 | 1017.4 |
| 20260502030555 | 61 | 0 | 6.1 | 7.8 | 0.00 | 0.00 | 0.00 | 23 | 1017.2 |
| 20260502030015 | 62 | 138 | 2.6 | 6.1 | 0.00 | 0.00 | 0.00 | 23 | 1017.3 |
| 20260502025555 | 62 | 350 | 6.1 | 7.8 | 0.00 | 0.00 | 0.00 | 23 | 1017.2 |
| 20260502025055 | 62 | 313 | 2.6 | 11.3 | 0.00 | 0.00 | 0.00 | 22 | 1017.3 |
| 20260502024556 | 62 | 296 | 10.4 | 12.2 | 0.00 | 0.00 | 0.00 | 22 | 1017.0 |
| 20260502024015 | 63 | 3 | 3.5 | 9.6 | 0.00 | 0.00 | 0.00 | 22 | 1017.0 |
| 20260502023555 | 64 | 3 | 8.7 | 15.6 | 0.00 | 0.00 | 0.00 | 20 | 1016.8 |
| 20260502023056 | 64 | 281 | 7.8 | 8.7 | 0.00 | 0.00 | 0.00 | 19 | 1016.5 |
| 20260502021014 | 65 | 283 | 6.1 | 15.6 | 0.00 | 0.00 | 0.00 | 19 | 1016.2 |
| 20260502020555 | 65 | 320 | 8.7 | 11.3 | 0.00 | 0.00 | 0.00 | 19 | 1016.1 |
| 20260502020055 | 66 | 329 | 2.6 | 4.3 | 0.00 | 0.00 | 0.00 | 19 | 1016.1 |
| 20260502015555 | 68 | 280 | 1.7 | 3.5 | 0.00 | 0.00 | 0.00 | 19 | 1016.2 |
| 20260502015015 | 68 | 303 | 2.6 | 3.5 | 0.00 | 0.00 | 0.00 | 18 | 1016.0 |
| 20260502014555 | 68 | 285 | 1.7 | 3.5 | 0.00 | 0.00 | 0.00 | 19 | 1015.9 |
| 20260502014056 | 68 | 325 | 2.6 | 3.5 | 0.00 | 0.00 | 0.00 | 18 | 1016.1 |
| 20260502013556 | 69 | 325 | 2.6 | 2.6 | 0.00 | 0.00 | 0.00 | 18 | 1015.9 |
| 20260502013014 | 68 | 9 | 1.7 | 4.3 | 0.00 | 0.00 | 0.00 | 18 | 1015.9 |
| 20260502012555 | 67 | 321 | 1.7 | 3.5 | 0.00 | 0.00 | 0.00 | 18 | 1015.9 |
| 20260502012055 | 68 | 344 | 3.5 | 4.3 | 0.00 | 0.00 | 0.00 | 18 | 1015.9 |
| 20260502011555 | 66 | 353 | 4.3 | 4.3 | 0.00 | 0.00 | 0.00 | 19 | 1015.9 |
| 20260502011055 | 66 | 309 | 3.5 | 6.1 | 0.00 | 0.00 | 0.00 | 19 | 1015.9 |
| 20260502010555 | 66 | 331 | 3.5 | 7.8 | 0.00 | 0.00 | 0.00 | 19 | 1015.7 |
| 20260502010014 | 67 | 300 | 1.7 | 5.2 | 0.00 | 0.00 | 0.00 | 18 | 1015.8 |
| 20260502005555 | 67 | 13 | 0.0 | 7.8 | 0.00 | 0.00 | 0.00 | 19 | 1015.9 |
| 20260502005056 | 67 | 0 | 5.2 | 6.1 | 0.00 | 0.00 | 0.00 | 18 | 1015.9 |
| 20260502004514 | 67 | 338 | 5.2 | 6.1 | 0.00 | 0.00 | 0.00 | 18 | 1015.7 |
| 20260502004015 | 68 | 269 | 4.3 | 6.1 | 0.00 | 0.00 | 0.00 | 18 | 1015.8 |
| 20260502003555 | 68 | 12 | 2.6 | 7.8 | 0.00 | 0.00 | 0.00 | 18 | 1015.7 |
| 20260502003014 | 69 | 353 | 1.7 | 5.2 | 0.00 | 0.00 | 0.00 | 18 | 1015.7 |
| 20260502002555 | 69 | 242 | 3.5 | 4.3 | 0.00 | 0.00 | 0.00 | 17 | 1015.8 |
| 20260502002055 | 68 | 249 | 4.3 | 9.6 | 0.00 | 0.00 | 0.00 | 18 | 1015.6 |
| 20260502000555 | 68 | 261 | 7.0 | 14.8 | 0.00 | 0.00 | 0.00 | 18 | 1015.7 |
| 20260502000055 | 68 | 263 | 14.8 | 18.2 | 0.00 | 0.00 | 0.00 | 18 | 1015.6 |
| 20260501235556 | 69 | 327 | 9.6 | 14.8 | 0.00 | 0.00 | 0.00 | 17 | 1015.7 |
| 20260501233556 | 69 | 231 | 4.3 | 26.1 | 0.00 | 0.00 | 0.00 | 18 | 1015.6 |
| 20260501233055 | 70 | 321 | 4.3 | 6.1 | 0.00 | 0.00 | 0.00 | 17 | 1015.5 |
| 20260501232556 | 69 | 52 | 2.6 | 8.7 | 0.00 | 0.00 | 0.00 | 18 | 1015.7 |
| 20260501232015 | 68 | 298 | 7.0 | 8.7 | 0.00 | 0.00 | 0.00 | 18 | 1015.8 |
| 20260501231555 | 68 | 1 | 3.5 | 7.8 | 0.00 | 0.00 | 0.00 | 18 | 1015.9 |
| 20260501231055 | 69 | 54 | 0.0 | 6.1 | 0.00 | 0.00 | 0.00 | 17 | 1015.8 |
| 20260501230515 | 70 | 78 | 2.6 | 4.3 | 0.00 | 0.00 | 0.00 | 17 | 1015.6 |
| 20260501230015 | 69 | 0 | 2.6 | 5.2 | 0.00 | 0.00 | 0.00 | 18 | 1015.7 |
| 20260501225555 | 68 | 6 | 5.2 | 6.1 | 0.00 | 0.00 | 0.00 | 19 | 1015.8 |
| 20260501225015 | 67 | 41 | 0.0 | 3.5 | 0.00 | 0.00 | 0.00 | 19 | 1015.9 |
| 20260501224555 | 67 | 326 | 2.6 | 3.5 | 0.00 | 0.00 | 0.00 | 19 | 1015.9 |
| 20260501224055 | 67 | 254 | 5.2 | 6.1 | 0.00 | 0.00 | 0.00 | 19 | 1015.9 |
| 20260501223555 | 68 | 246 | 1.7 | 5.2 | 0.00 | 0.00 | 0.00 | 20 | 1015.9 |
| 20260501223015 | 67 | 340 | 1.7 | 6.1 | 0.00 | 0.00 | 0.00 | 19 | 1015.9 |
| 20260501222556 | 67 | 5 | 4.3 | 7.8 | 0.00 | 0.00 | 0.00 | 19 | 1016.0 |
| 20260501222055 | 68 | 332 | 4.3 | 4.3 | 0.00 | 0.00 | 0.00 | 19 | 1015.9 |
| 20260501221515 | 67 | 296 | 2.6 | 4.3 | 0.00 | 0.00 | 0.00 | 19 | 1015.9 |
| 20260501221015 | 67 | 45 | 1.7 | 6.1 | 0.00 | 0.00 | 0.00 | 19 | 1015.9 |
| 20260501220555 | 67 | 289 | 3.5 | 6.1 | 0.00 | 0.00 | 0.00 | 19 | 1016.1 |
| 20260501215556 | 67 | 277 | 3.5 | 8.7 | 0.00 | 0.00 | 0.00 | 20 | 1016.1 |
| 20260501215056 | 67 | 275 | 6.1 | 10.4 | 0.00 | 0.00 | 0.00 | 20 | 1016.3 |
| 20260501214556 | 68 | 264 | 8.7 | 14.8 | 0.00 | 0.00 | 0.00 | 19 | 1016.1 |
| 20260501214015 | 70 | 110 | 2.6 | 7.0 | 0.00 | 0.00 | 0.00 | 18 | 1016.1 |
| 20260501213556 | 67 | 247 | 4.3 | 19.1 | 0.00 | 0.00 | 0.00 | 20 | 1016.3 |
| 20260501213056 | 67 | 205 | 5.2 | 7.8 | 0.00 | 0.00 | 0.00 | 20 | 1016.2 |
| 20260501211014 | 68 | 257 | 3.5 | 4.3 | 0.00 | 0.00 | 0.00 | 18 | 1016.5 |
| 20260501210555 | 67 | 117 | 2.6 | 6.1 | 0.00 | 0.00 | 0.00 | 18 | 1016.5 |
| 20260501210056 | 66 | 174 | 2.6 | 10.4 | 0.00 | 0.00 | 0.00 | 19 | 1016.5 |
| 20260501205555 | 66 | 217 | 6.1 | 11.3 | 0.00 | 0.00 | 0.00 | 19 | 1016.7 |
| 20260501205014 | 68 | 207 | 8.7 | 18.2 | 0.00 | 0.00 | 0.00 | 18 | 1016.5 |
| 20260501204556 | 69 | 232 | 7.0 | 13.0 | 0.00 | 0.00 | 0.00 | 18 | 1016.7 |
| 20260501204056 | 69 | 233 | 7.8 | 13.0 | 0.00 | 0.00 | 0.00 | 18 | 1016.7 |
| 20260501203515 | 68 | 239 | 7.0 | 18.2 | 0.00 | 0.00 | 0.00 | 18 | 1016.6 |
| 20260501203055 | 69 | 295 | 3.5 | 9.6 | 0.00 | 0.00 | 0.00 | 17 | 1016.7 |
| 20260501202556 | 71 | 242 | 5.2 | 5.2 | 0.00 | 0.00 | 0.00 | 16 | 1016.7 |
| 20260501202056 | 68 | 320 | 1.7 | 7.0 | 0.00 | 0.00 | 0.00 | 17 | 1016.7 |
| 20260501201555 | 69 | 235 | 6.1 | 10.4 | 0.00 | 0.00 | 0.00 | 17 | 1016.7 |
| 20260501201055 | 70 | 9 | 9.6 | 10.4 | 0.00 | 0.00 | 0.00 | 16 | 1016.7 |
| 20260501200555 | 68 | 258 | 4.3 | 5.2 | 0.00 | 0.00 | 0.00 | 18 | 1016.7 |
| 20260501200014 | 68 | 346 | 3.5 | 5.2 | 0.00 | 0.00 | 0.00 | 17 | 1016.7 |
| 20260501195555 | 69 | 116 | 2.6 | 6.1 | 0.00 | 0.00 | 0.00 | 16 | 1016.7 |
| 20260501195056 | 67 | 0 | 1.7 | 7.8 | 0.00 | 0.00 | 0.00 | 18 | 1016.8 |
| 20260501193014 | 73 | 109 | 2.6 | 5.2 | 0.00 | 0.00 | 0.00 | 17 | 1016.7 |
| 20260501192555 | 73 | 337 | 4.3 | 6.1 | 0.00 | 0.00 | 0.00 | 18 | 1017.0 |
| 20260501192056 | 71 | 23 | 2.6 | 5.2 | 0.00 | 0.00 | 0.00 | 18 | 1016.8 |
| 20260501191555 | 70 | 46 | 6.1 | 7.8 | 0.00 | 0.00 | 0.00 | 18 | 1017.1 |
| 20260501191015 | 65 | 274 | 1.7 | 6.1 | 0.00 | 0.00 | 0.00 | 21 | 1017.3 |
| 20260501190556 | 67 | 328 | 6.1 | 7.8 | 0.00 | 0.00 | 0.00 | 21 | 1017.1 |
| 20260501190056 | 67 | 342 | 2.6 | 5.2 | 0.00 | 0.00 | 0.00 | 20 | 1017.3 |
| 20260501185556 | 68 | 4 | 3.5 | 4.3 | 0.00 | 0.00 | 0.00 | 20 | 1017.2 |
| 20260501185015 | 68 | 20 | 3.5 | 5.2 | 0.00 | 0.00 | 0.00 | 20 | 1017.3 |
| 20260501184555 | 68 | 271 | 5.2 | 7.8 | 0.00 | 0.00 | 0.00 | 20 | 1017.4 |
| 20260501184055 | 66 | 6 | 2.6 | 7.0 | 0.00 | 0.00 | 0.00 | 21 | 1017.5 |